TimeMDT,TemperatureF,Dew PointF,Humidity,Sea Level PressureIn,VisibilityMPH,Wind Direction,Wind SpeedMPH,Gust SpeedMPH,PrecipitationIn,Events,Conditions,WindDirDegrees,DateUTC
12:53 AM,34.0,16.0,48,30.15,10.0,SSW,13.8,-,N/A,,Clear,210,2013-04-25 06:53:00
1:53 AM,34.0,16.0,48,30.12,10.0,SSW,10.4,-,N/A,,Clear,200,2013-04-25 07:53:00
2:53 AM,28.0,19.0,69,30.13,10.0,SW,9.2,-,N/A,,Clear,220,2013-04-25 08:53:00
3:53 AM,28.9,19.0,67,30.11,10.0,West,4.6,-,N/A,,Clear,280,2013-04-25 09:53:00
4:53 AM,28.0,19.0,69,30.11,10.0,West,10.4,-,N/A,,Clear,270,2013-04-25 10:53:00
5:53 AM,23.0,16.0,74,30.13,10.0,West,9.2,-,N/A,,Clear,260,2013-04-25 11:53:00
6:53 AM,28.0,17.1,63,30.09,10.0,West,10.4,-,N/A,,Clear,270,2013-04-25 12:53:00
7:53 AM,36.0,19.0,50,30.06,10.0,West,10.4,-,N/A,,Clear,270,2013-04-25 13:53:00
8:53 AM,45.0,15.1,30,30.04,10.0,SW,10.4,-,N/A,,Clear,230,2013-04-25 14:53:00
9:53 AM,51.1,8.1,18,30.02,10.0,WSW,15.0,-,N/A,,Clear,250,2013-04-25 15:53:00
10:53 AM,53.1,7.0,16,30.01,10.0,West,11.5,21.9,N/A,,Clear,270,2013-04-25 16:53:00
11:53 AM,55.9,3.9,12,29.95,10.0,West,18.4,26.5,N/A,,Clear,280,2013-04-25 17:53:00
12:53 PM,57.9,1.0,10,29.92,10.0,WSW,19.6,27.6,N/A,,Clear,250,2013-04-25 18:53:00
1:53 PM,57.0,5.0,12,29.90,10.0,West,19.6,26.5,N/A,,Clear,260,2013-04-25 19:53:00
2:53 PM,55.9,7.0,14,29.93,10.0,WSW,12.7,-,N/A,,Clear,250,2013-04-25 20:53:00
3:53 PM,57.0,6.1,13,29.88,10.0,WNW,15.0,21.9,N/A,,Clear,300,2013-04-25 21:53:00
4:53 PM,57.9,5.0,12,29.87,10.0,NW,12.7,21.9,N/A,,Clear,310,2013-04-25 22:53:00
5:53 PM,59.0,8.1,13,29.90,10.0,WNW,16.1,21.9,N/A,,Clear,300,2013-04-25 23:53:00
6:53 PM,55.9,12.9,18,29.90,10.0,WNW,8.1,-,N/A,,Clear,300,2013-04-26 00:53:00
7:53 PM,48.9,19.0,31,29.92,10.0,SW,9.2,-,N/A,,Clear,230,2013-04-26 01:53:00
8:53 PM,46.0,19.9,35,29.91,10.0,WSW,3.5,-,N/A,,Clear,250,2013-04-26 02:53:00
9:53 PM,41.0,23.0,49,29.93,10.0,Variable,4.6,-,N/A,,Clear,0,2013-04-26 03:53:00
10:53 PM,37.0,23.0,57,29.94,10.0,West,8.1,-,N/A,,Clear,270,2013-04-26 04:53:00
11:53 PM,33.1,23.0,66,29.95,10.0,West,8.1,-,N/A,,Clear,260,2013-04-26 05:53:00